{"data":{"norad_id":53164,"intl_designator":"2022-083AJ","name":"STARLINK-4116","alt_names":[],"object_type":"PAYLOAD","status":"ACTIVE","operator":null,"country":"US","launch_date":"2022-07-17","launch_site_code":"AFETR","launch_vehicle":null,"mission":null,"orbit_class":"UNKNOWN","rcs_meters":null,"size_class":null,"mass_kg":null,"dimensions":null,"purposes":["comms"],"wikipedia_slug":null,"has_3d_model":false,"image_url":null,"decayed_at":null,"tle_current":{"epoch":"2026-09-19T23:52:08.145408Z","epoch_age_seconds":115959,"freshness":"FRESH","line1":"1 53164U 22083AJ  26262.99453872  .00001199  00000+0  46640-4 0  9992","line2":"2 53164  53.1596   7.8126 0001423  72.9548 287.1611 15.34393746230746","mean_motion":15.34393746,"eccentricity":0.0001423,"inclination_deg":53.1596,"raan_deg":7.8126,"arg_perigee_deg":72.9548,"mean_anomaly_deg":287.1611,"bstar":4.664e-5,"rev_number":23074,"period_min":93.848140593242,"perigee_km":461.74837426492,"apogee_km":463.69528268751,"semimajor_km":6840.8588284762,"source":"CELESTRAK","updated_at":"2026-09-20T09:00:40.184274Z"}}}